TimeEST,TemperatureF,Dew PointF,Humidity,Sea Level PressureIn,VisibilityMPH,Wind Direction,Wind SpeedMPH,Gust SpeedMPH,PrecipitationIn,Events,Conditions,WindDirDegrees,DateUTC
12:16 AM,59.0,55.4,88,30.06,10.0,North,8.1,-,N/A,,Overcast,350,2012-12-12 05:16:00
12:55 AM,58.3,52.9,82,30.08,10.0,NW,9.2,-,N/A,,Overcast,320,2012-12-12 05:55:00
1:00 AM,57.2,51.8,82,30.08,10.0,NW,6.9,-,N/A,,Overcast,320,2012-12-12 06:00:00
1:29 AM,57.2,51.8,82,30.08,10.0,NNW,6.9,-,N/A,,Overcast,340,2012-12-12 06:29:00
1:51 AM,57.2,51.8,82,30.08,10.0,NNW,6.9,-,N/A,Rain,Light Rain,330,2012-12-12 06:51:00
1:55 AM,57.4,51.4,81,30.08,10.0,NNW,5.8,-,0.00,Rain,Light Rain,330,2012-12-12 06:55:00
2:02 AM,57.2,51.8,82,30.09,10.0,NW,6.9,-,N/A,,Overcast,310,2012-12-12 07:02:00
2:36 AM,57.2,51.8,82,30.09,10.0,NW,9.2,-,N/A,Rain,Light Rain,310,2012-12-12 07:36:00
2:45 AM,57.2,51.8,82,30.09,10.0,NNW,8.1,-,N/A,,Overcast,330,2012-12-12 07:45:00
2:55 AM,56.5,52.2,85,30.09,10.0,NW,8.1,-,0.00,,Light Drizzle,310,2012-12-12 07:55:00
3:10 AM,55.4,53.6,94,30.09,7.0,NW,8.1,-,N/A,Rain,Light Rain,320,2012-12-12 08:10:00
3:17 AM,55.4,53.6,94,30.09,10.0,NNW,5.8,-,N/A,,Overcast,330,2012-12-12 08:17:00
3:55 AM,55.0,52.5,91,30.08,10.0,NNW,5.8,-,0.02,,Overcast,340,2012-12-12 08:55:00
4:55 AM,55.0,52.3,91,30.07,10.0,NW,9.2,-,N/A,,Overcast,320,2012-12-12 09:55:00
5:55 AM,54.1,50.2,86,30.09,10.0,North,5.8,-,N/A,,Overcast,360,2012-12-12 10:55:00
6:55 AM,53.8,49.5,85,30.11,10.0,NNW,4.6,-,N/A,,Overcast,330,2012-12-12 11:55:00
6:58 AM,53.6,50.0,88,30.11,10.0,NNW,4.6,-,N/A,,Light Drizzle,340,2012-12-12 11:58:00
7:55 AM,53.4,50.5,90,30.08,10.0,Variable,4.6,-,0.02,Rain,Light Rain,0,2012-12-12 12:55:00
8:55 AM,53.8,51.6,92,30.12,10.0,NNW,5.8,-,0.04,,Light Drizzle,340,2012-12-12 13:55:00
9:00 AM,53.6,51.8,94,30.12,10.0,North,4.6,-,N/A,,Mostly Cloudy,360,2012-12-12 14:00:00
9:27 AM,53.6,51.8,94,30.14,10.0,NNE,4.6,-,N/A,,Overcast,20,2012-12-12 14:27:00
9:37 AM,53.6,51.8,94,30.11,10.0,North,9.2,-,N/A,,Overcast,10,2012-12-12 14:37:00
9:46 AM,53.6,51.8,94,30.13,10.0,North,9.2,-,N/A,,Overcast,350,2012-12-12 14:46:00
9:55 AM,54.1,52.0,92,30.13,10.0,North,9.2,-,0.00,,Overcast,360,2012-12-12 14:55:00
9:58 AM,53.6,51.8,94,30.13,10.0,North,10.4,-,N/A,,Overcast,360,2012-12-12 14:58:00
10:40 AM,55.4,53.6,94,30.14,10.0,North,6.9,-,N/A,,Light Drizzle,350,2012-12-12 15:40:00
10:47 AM,55.4,53.6,94,30.14,10.0,NNE,6.9,-,N/A,,Light Drizzle,30,2012-12-12 15:47:00
10:55 AM,55.4,53.1,92,30.14,9.0,North,5.8,-,0.00,Rain,Light Rain,10,2012-12-12 15:55:00
10:56 AM,55.4,53.6,94,30.13,5.0,North,9.2,-,N/A,Rain,Light Rain,360,2012-12-12 15:56:00
10:59 AM,55.4,53.6,94,30.13,9.0,North,9.2,-,N/A,Rain,Rain,350,2012-12-12 15:59:00
11:09 AM,55.4,53.6,94,30.14,10.0,NNW,8.1,-,N/A,Rain,Light Rain,340,2012-12-12 16:09:00
11:23 AM,55.4,53.6,94,30.14,10.0,NNE,6.9,-,N/A,,Overcast,20,2012-12-12 16:23:00
11:55 AM,55.8,53.8,93,30.14,10.0,North,4.6,-,0.01,,Overcast,360,2012-12-12 16:55:00
12:19 PM,57.2,53.6,88,30.12,10.0,North,5.8,-,N/A,,Overcast,360,2012-12-12 17:19:00
12:38 PM,57.2,53.6,88,30.11,9.0,NNE,5.8,-,N/A,,Overcast,20,2012-12-12 17:38:00
12:55 PM,56.8,54.3,91,30.11,10.0,NNW,8.1,-,0.00,Rain,Light Rain,330,2012-12-12 17:55:00
1:01 PM,57.2,55.4,94,30.11,6.0,NNW,9.2,-,N/A,Rain,Heavy Rain,340,2012-12-12 18:01:00
1:34 PM,57.2,53.6,88,30.11,10.0,NNW,8.1,-,N/A,,Light Drizzle,340,2012-12-12 18:34:00
1:40 PM,57.2,53.6,88,30.10,10.0,NNW,8.1,-,N/A,,Overcast,340,2012-12-12 18:40:00
1:47 PM,57.2,53.6,88,30.12,10.0,NW,8.1,-,N/A,,Overcast,310,2012-12-12 18:47:00
1:48 PM,57.2,53.6,88,30.12,10.0,NW,9.2,-,N/A,,Overcast,310,2012-12-12 18:48:00
1:55 PM,56.1,53.6,91,30.13,10.0,WNW,12.7,-,0.04,,Overcast,300,2012-12-12 18:55:00
2:03 PM,55.4,53.6,94,30.13,10.0,NW,11.5,-,N/A,Rain,Light Rain,310,2012-12-12 19:03:00
2:11 PM,55.4,53.6,94,30.12,7.0,NNW,8.1,-,N/A,Rain,Rain,340,2012-12-12 19:11:00
2:25 PM,55.4,53.6,94,30.10,10.0,North,6.9,-,N/A,Rain,Light Rain,10,2012-12-12 19:25:00
2:36 PM,55.4,53.6,94,30.11,10.0,NNE,5.8,-,N/A,,Mostly Cloudy,20,2012-12-12 19:36:00
2:45 PM,55.4,53.6,94,30.11,10.0,NNW,8.1,-,N/A,,Mostly Cloudy,340,2012-12-12 19:45:00
2:46 PM,55.4,53.6,94,30.11,10.0,North,8.1,-,N/A,Rain,Light Rain,350,2012-12-12 19:46:00
2:55 PM,55.0,52.9,92,30.12,10.0,NNW,6.9,-,0.01,Rain,Light Rain,340,2012-12-12 19:55:00
3:03 PM,55.4,53.6,94,30.11,10.0,NNE,8.1,-,N/A,Rain,Light Rain,20,2012-12-12 20:03:00
3:39 PM,53.6,51.8,94,30.12,9.0,North,5.8,-,N/A,Rain,Light Rain,10,2012-12-12 20:39:00
3:55 PM,54.1,52.2,93,30.12,10.0,NNE,9.2,-,0.02,Rain,Light Rain,30,2012-12-12 20:55:00
4:20 PM,53.6,51.8,94,30.10,10.0,NE,9.2,-,N/A,Rain,Light Rain,40,2012-12-12 21:20:00
4:30 PM,53.6,51.8,94,30.12,10.0,NNE,8.1,-,N/A,,Light Drizzle,20,2012-12-12 21:30:00
4:55 PM,53.4,51.6,94,30.13,10.0,North,8.1,-,0.02,Rain,Light Rain,360,2012-12-12 21:55:00
5:31 PM,53.6,51.8,94,30.14,10.0,North,5.8,-,N/A,Rain,Light Rain,360,2012-12-12 22:31:00
5:35 PM,53.6,51.8,94,30.13,10.0,NNE,8.1,-,N/A,Rain,Light Rain,20,2012-12-12 22:35:00
5:55 PM,52.7,51.1,94,30.12,10.0,NNE,9.2,-,0.02,Rain,Light Rain,30,2012-12-12 22:55:00
6:10 PM,53.6,51.8,94,30.12,10.0,NNE,8.1,-,N/A,,Light Drizzle,20,2012-12-12 23:10:00
6:20 PM,53.6,51.8,94,30.13,10.0,NNE,8.1,-,N/A,,Overcast,30,2012-12-12 23:20:00
6:35 PM,53.6,51.8,94,30.15,10.0,NNE,4.6,-,N/A,Rain,Light Rain,20,2012-12-12 23:35:00
6:47 PM,53.6,51.8,94,30.14,7.0,NE,4.6,-,N/A,Rain,Rain,40,2012-12-12 23:47:00
6:55 PM,52.9,51.4,95,30.13,7.0,NE,5.8,-,0.03,Rain,Light Rain,40,2012-12-12 23:55:00
7:08 PM,53.6,51.8,94,30.13,8.0,East,9.2,-,N/A,Rain,Light Rain,80,2012-12-13 00:08:00
7:13 PM,51.8,51.8,100,30.13,10.0,ENE,8.1,-,N/A,Rain,Light Rain,70,2012-12-13 00:13:00
7:17 PM,51.8,51.8,100,30.13,10.0,East,10.4,-,N/A,Rain,Light Rain,80,2012-12-13 00:17:00
7:32 PM,51.8,50.0,94,30.14,8.0,NE,8.1,-,N/A,Rain,Rain,50,2012-12-13 00:32:00
7:34 PM,51.8,50.0,94,30.13,7.0,ENE,10.4,-,N/A,Rain,Rain,60,2012-12-13 00:34:00
7:38 PM,51.8,50.0,94,30.13,7.0,ENE,10.4,-,N/A,Rain,Light Rain,60,2012-12-13 00:38:00
7:43 PM,51.8,50.0,94,30.12,8.0,ENE,10.4,17.3,N/A,Rain,Light Rain,60,2012-12-13 00:43:00
7:55 PM,51.6,50.2,95,30.11,10.0,NE,10.4,-,0.06,Rain,Light Rain,50,2012-12-13 00:55:00
8:03 PM,51.8,50.0,94,30.11,10.0,ENE,9.2,-,N/A,Rain,Light Rain,60,2012-12-13 01:03:00
8:17 PM,51.8,50.0,94,30.12,10.0,ENE,9.2,-,N/A,,Light Drizzle,60,2012-12-13 01:17:00
8:20 PM,51.8,50.0,94,30.11,10.0,NE,8.1,-,N/A,,Overcast,50,2012-12-13 01:20:00
8:22 PM,51.8,50.0,94,30.12,10.0,ENE,6.9,-,N/A,,Light Drizzle,60,2012-12-13 01:22:00
8:55 PM,51.8,50.4,95,30.10,7.0,ENE,9.2,-,0.05,Rain,Light Rain,70,2012-12-13 01:55:00
9:24 PM,51.8,50.0,94,30.09,10.0,ENE,11.5,19.6,N/A,Rain,Light Rain,70,2012-12-13 02:24:00
9:38 PM,51.8,50.0,94,30.12,10.0,NE,6.9,-,N/A,Rain,Light Rain,40,2012-12-13 02:38:00
9:46 PM,51.8,50.0,94,30.13,10.0,North,6.9,-,N/A,Rain,Light Rain,10,2012-12-13 02:46:00
9:53 PM,51.8,50.0,94,30.14,10.0,North,8.1,-,N/A,Rain,Light Rain,360,2012-12-13 02:53:00
9:55 PM,51.4,50.0,95,30.15,10.0,North,6.9,-,0.03,Rain,Light Rain,350,2012-12-13 02:55:00
10:00 PM,51.8,50.0,94,30.15,10.0,North,6.9,-,N/A,Rain,Light Rain,360,2012-12-13 03:00:00
10:30 PM,51.8,50.0,94,30.15,10.0,North,4.6,-,N/A,Rain,Light Rain,10,2012-12-13 03:30:00
10:53 PM,51.8,50.0,94,30.14,10.0,NNE,6.9,-,N/A,,Light Drizzle,20,2012-12-13 03:53:00
10:55 PM,51.1,49.6,95,30.14,10.0,NE,6.9,-,0.01,Rain,Light Rain,40,2012-12-13 03:55:00
11:02 PM,51.8,50.0,94,30.16,10.0,NNE,3.5,-,N/A,Rain,Light Rain,20,2012-12-13 04:02:00
11:46 PM,50.0,50.0,100,30.17,9.0,North,8.1,-,N/A,Rain,Light Rain,350,2012-12-13 04:46:00
11:48 PM,50.0,50.0,100,30.17,10.0,NNW,6.9,-,N/A,Rain,Light Rain,340,2012-12-13 04:48:00
11:55 PM,50.5,49.3,95,30.17,10.0,NNW,11.5,-,0.06,Rain,Light Rain,340,2012-12-13 04:55:00